STARLINK-35392, 65823

Orbit data source: Space-Track

STARLINK-35392, 65823 is a payload satellite owned by SpaceX/Seattle (US) in LEO that was launched on Mon, 29 Sep 2025 UTC via an FALCON 9 launch vehicle from the Air Force Western Test Range (AFWTR). Payload-class satellites include a variety of spacecraft equipped with specific instruments for various scientific and technological missions. These include communications satellites like Starlink; space stations such as the ISS; scientific satellites like the Hubble; Earth observation satellites from companies like Planet Labs, Umbra, and HawkEye 360; GPS; miniature CubeSats for education and research; and military/defense satellites.

Loading next visibility...
Identifier
65823, 2025-221A
Orbit
LEO
Country
Flag of USUS
Related business
Manufacturer
SpaceX/Seattle
Mission
Operational Commercial Communications
Bus & Motor
STARLINK V2MO, Unknown motor
Mass
575 kg wet, ~530 kg dry
Launch date (UTC)
2025-09-29 (2 months ago)
Launch vehicle
FALCON 9
Launch site
Air Force Western Test Range (AFWTR)
Object type
Payload
Rocket body
Debris
Shape & HBR
Box + 2 Pan, 17.7 m
Radar Cross Section
36.964 m²

Expand to show TLE details & history
Last TLE update: 10 hours ago

TLE from 10 hours ago
0 STARLINK-35392
1 65823U 25221A   25340.91061793  .00037805  00000-0  12815-2 0  9998
2 65823  53.1594 159.6456 0001044  75.8857 284.2259 15.30212744 11876
Epoch: 2025-12-06T21:51Z
TLE epoch observation values (Epoch: 2025-12-06T21:51:17.389Z)
Latitude
-0.00006°
Longitude
115.89152°
Altitude
475.901 km
Speed
7.629 km/s
True Right ascension
10h 38m 34s
True Declination
0° 00' 00"
Sunlit
Object was in daylight at epoch
Visualization orbit readout
Latitude
Unknown
Longitude
Unknown
Altitude
Unknown
Speed
Unknown
Apparent Right ascension
Unknown
Apparent Declination
Unknown
Sunlit
N/A
Visualization observer readout
Local Sidereal Time
05:38:22
Azimuth
Unknown
Elevation
Unknown
Doppler factor
Unknown
Orbital elements
Apogee altitude
476.149 km
Perigee altitude
474.718 km
Semi-major axis
6,853.571 km
Eccentricity
0.0001
Inclination
53.1594°
RAAN
159.6456°
Arg. of periapsis
75.8857°
True anomaly
284.2143°
Mean anomaly
284.2259°
Eccentric anomaly
284.2201°
Mean motion
3.82532 °/min
Orbital period
94.11 mins
BSTAR
0.0012815
Loading maneuver chart data...
Computing Atmospheric mass density...
Loading historical data...
Loading historical data...
Loading historical data...
Loading historical data...
Loading historical data...
Loading historical data...
Loading historical data...

Documentation

Showing up to 5 results
|